Gander International Airport

Jump to: basic info | weather | frequencies | runways | comments

Related pages: nearby airports | nearby navaids | notams | map

Basic information (top)

Codes: YQX CYQX
Location: lon 48.936901, lat -54.568100, elev 496 ft / 151 m msl
Status: medium_airport
Scheduled airline service: yes
Links: Wikipedia Mobile

Weather (top)

Current conditions (rec'd 2014/11/24 04:00Z):

CYQX 240400Z 29016G22KT 20SM FEW027 FEW180 SCT240 M04/M10 A2997 RMK SC1AC1CI1 SLP158

Airport forecast (rec'd 2014/11/23 00:42Z):

TAF CYQX 232339Z 2400/2424 29015G25KT P6SM SCT040 
      TEMPO 2400/2408 BKN040 
      BECMG 2400/2402 28012G22KT 
     FM241100 27012KT P6SM FEW020 
     FM242000 17010KT P6SM FEW020 
      BECMG 2422/2424 SCT020 BKN120 
      RMK NXT FCST BY 240600Z

Frequencies (top)

Verify before use: may be inaccurate or out of date.

A/D: 128.5 MHz (APP/DEP)
ATIS: 124.8 MHz (ATIS)
GND: 121.9 MHz (GND)
OPS: 128.85 MHz (OUTCAST OPS)
RCO: 126.7 MHz (HALIFAX RDO)
TWR: 118.1 MHz (TWR)

Runways (top)

03/21: 10,200 x 200 ft (3,109 x 61 m) — paved — lighted

09/27 [CLOSED]: 1,875 x 50 ft (572 x 15 m) — paved — not lighted

13/31: 8,900 x 200 ft (2,713 x 61 m) — paved — lighted

Latest comments (top)

Gander hospitality: Our USAirways flight from Dublin to ... [read]

More... (top)

See also NOTAMs and nearby airports and navaids, or visit the Gander International Airport page at the main OurAirports website..